IBS13KP LEPA-LEMD

Flight info

Callsign IBS13KP
Flight time N/A
Altitude 31000
Route EPAMA N733 PRADO
Aircraft A320/M-SDE3FGHIRWY/LB1

Departure

Time 2026-05-05 21:08
Airport Palma de Mallorca Airport (LEPA)

Arrival

Time N/A
Airport Adolfo Suárez Madrid–Barajas Airport (LEMD)
Time Latitude Longitude Altitude Speed Heading
2026-05-05 20:33 39.55065 2.73580 36 ft 0 kts 164°
2026-05-05 20:54 39.55070 2.73578 37 ft 3 kts 163°
2026-05-05 20:54 39.55088 2.73569 35 ft 3 kts 146°
2026-05-05 20:54 39.55102 2.73553 37 ft 3 kts 109°
2026-05-05 20:55 39.55103 2.73533 36 ft 2 kts 59°
2026-05-05 20:55 39.55102 2.73532 36 ft 0 kts 59°
2026-05-05 21:03 39.55111 2.73551 36 ft 6 kts 59°
2026-05-05 21:03 39.55142 2.73618 38 ft 12 kts 59°
2026-05-05 21:03 39.55170 2.73735 38 ft 17 kts 102°
2026-05-05 21:03 39.55218 2.73812 38 ft 13 kts 350°
2026-05-05 21:04 39.55311 2.73741 38 ft 18 kts 328°
2026-05-05 21:04 39.55435 2.73640 38 ft 23 kts 328°
2026-05-05 21:04 39.55585 2.73529 38 ft 23 kts 329°
2026-05-05 21:04 39.55699 2.73588 38 ft 20 kts 59°
2026-05-05 21:05 39.55781 2.73768 38 ft 24 kts 57°
2026-05-05 21:05 39.55874 2.73966 38 ft 28 kts 59°
2026-05-05 21:05 39.55977 2.74185 38 ft 27 kts 58°
2026-05-05 21:05 39.56087 2.74299 37 ft 10 kts 26°
2026-05-05 21:06 39.56138 2.74333 36 ft 0 kts 29°
2026-05-05 21:06 39.56166 2.74347 55 ft 11 kts 11°
2026-05-05 21:06 39.56223 2.74263 38 ft 15 kts 258°
2026-05-05 21:07 39.56212 2.74236 36 ft 0 kts 235°
2026-05-05 21:07 39.56197 2.74205 38 ft 18 kts 238°
2026-05-05 21:07 39.56001 2.73788 38 ft 89 kts 238°
2026-05-05 21:07 39.55570 2.72883 39 ft 144 kts 238°
2026-05-05 21:08 39.54993 2.71672 391 ft 158 kts 238°
2026-05-05 21:08 39.54430 2.70482 1080 ft 154 kts 239°
2026-05-05 21:08 39.53868 2.69303 1717 ft 156 kts 238°
2026-05-05 21:08 39.53235 2.68045 2028 ft 178 kts 238°
2026-05-05 21:09 39.52508 2.66619 2320 ft 201 kts 238°
2026-05-05 21:09 39.51721 2.65084 2787 ft 211 kts 237°
2026-05-05 21:09 39.50901 2.63487 3531 ft 212 kts 238°
2026-05-05 21:09 39.50086 2.61897 4308 ft 213 kts 238°
2026-05-05 21:10 39.49268 2.60293 5068 ft 214 kts 238°
2026-05-05 21:10 39.48444 2.58677 5810 ft 216 kts 238°
2026-05-05 21:10 39.47606 2.57039 6531 ft 220 kts 237°
2026-05-05 21:10 39.46755 2.55382 7254 ft 221 kts 238°
2026-05-05 21:11 39.45913 2.53743 8002 ft 221 kts 238°
2026-05-05 21:11 39.45163 2.51993 8632 ft 229 kts 255°
2026-05-05 21:11 39.45171 2.49860 8916 ft 254 kts 287°
2026-05-05 21:11 39.45929 2.47712 9432 ft 267 kts 289°
2026-05-05 21:12 39.46459 2.45393 10155 ft 271 kts 281°
2026-05-05 21:12 39.46885 2.42936 10469 ft 292 kts 279°
2026-05-05 21:12 39.47276 2.40276 10811 ft 308 kts 278°
2026-05-05 21:12 39.47645 2.37518 11475 ft 313 kts 277°
2026-05-05 21:13 39.48003 2.34724 12214 ft 316 kts 276°
2026-05-05 21:13 39.48364 2.31904 12955 ft 319 kts 276°
2026-05-05 21:13 39.48732 2.29061 13701 ft 321 kts 276°
2026-05-05 21:13 39.49104 2.26199 14353 ft 324 kts 276°
2026-05-05 21:14 39.49476 2.23317 15015 ft 326 kts 276°
2026-05-05 21:14 39.49851 2.20418 15677 ft 327 kts 275°
2026-05-05 21:14 39.50195 2.17785 16260 ft 330 kts 275°
2026-05-05 21:14 39.50581 2.14842 16896 ft 333 kts 275°
2026-05-05 21:15 39.50965 2.11908 17544 ft 336 kts 275°
2026-05-05 21:15 39.51357 2.08904 18260 ft 338 kts 275°
2026-05-05 21:15 39.51750 2.05890 18910 ft 340 kts 275°
2026-05-05 21:15 39.52130 2.02979 19563 ft 342 kts 275°
2026-05-05 21:16 39.52476 2.00415 19956 ft 293 kts 275°
2026-05-05 21:16 39.52834 1.97922 19890 ft 275 kts 275°
2026-05-05 21:16 39.53132 1.95824 19310 ft 278 kts 275°
2026-05-05 21:16 39.53453 1.93385 18571 ft 260 kts 272°
2026-05-05 21:17 39.53649 1.91186 18628 ft 237 kts 269°
2026-05-05 21:17 39.53746 1.89036 17829 ft 247 kts 267°
2026-05-05 21:17 39.53752 1.86673 16019 ft 288 kts 265°
2026-05-05 21:17 39.53647 1.84177 16415 ft 249 kts 263°
2026-05-05 21:18 39.53550 1.82094 16750 ft 223 kts 263°
2026-05-05 21:18 39.53440 1.80089 16450 ft 217 kts 262°
2026-05-05 21:18 39.53309 1.78262 16423 ft 203 kts 261°
2026-05-05 21:18 39.53169 1.76519 16444 ft 183 kts 260°